Showing default

COSMOS 2556, 52713

Orbit data source: Space-Track

COSMOS 2556, 52713 is a payload satellite owned by VVKO VKS (CIS) in SSO that was launched on Thu, 19 May 2022 UTC via a SOYUZ-2-1A launch vehicle from the Plesetsk Missile And Space Complex (PKMTR). Payload-class satellites include a variety of spacecraft equipped with specific instruments for various scientific and technological missions. These include communications satellites like Starlink; space stations such as the ISS; scientific satellites like the Hubble; Earth observation satellites from companies like Planet Labs, Umbra, and HawkEye 360; GPS; miniature CubeSats for education and research; and military/defense satellites.

Loading next visibility...
Identifier
52713, 2022-054A
Orbit
SSO
Country
Flag of CISCIS
Related business
Manufacturer
Arsenal
Mission
Operational Defense Imaging
Bus & Motor
BARS, AOCS
Mass
3,700 kg wet, ~3,500 kg dry
Launch date (UTC)
2022-05-19 (4 years ago)
Launch vehicle
SOYUZ-2-1A
Launch site
Plesetsk Missile And Space Complex (PKMTR)
Object type
Payload
Rocket body
Debris
Shape & HBR
Cyl + 2 Pan, 5.0 m
Radar Cross Section
20.881 m², Large (>1 m²)

Expand to show TLE details & history
Last TLE update: 21 hours ago

TLE from 21 hours ago
0 COSMOS 2556
1 52713U 22054A   26172.55342498  .00001658  00000-0  67170-4 0  9994
2 52713  97.6286 122.3365 0002464  87.3696 272.7824 15.26141442227402
Epoch: 2026-06-21T13:16Z
TLE epoch observation values (Epoch: 2026-06-21T13:16:55.918Z)
Latitude
Longitude
13.35147°
Altitude
490.37 km
Speed
7.62 km/s
True Right ascension
08h 09m 20s
True Declination
0° 00' 00"
Sunlit
Object was in daylight at epoch
Visualization orbit readout
Latitude
Unknown
Longitude
Unknown
Altitude
Unknown
Speed
Unknown
Apparent Right ascension
Unknown
Apparent Declination
Unknown
Sunlit
N/A
Visualization observer readout
Local Sidereal Time
21:33:57
Azimuth
Unknown
Elevation
Unknown
Doppler factor
Unknown
Orbital elements
Apogee altitude
486.018 km
Perigee altitude
482.636 km
Semi-major axis
6,862.464 km
Eccentricity
0.00025
Inclination
97.6286°
RAAN
122.3365°
Arg. of periapsis
87.3696°
True anomaly
272.7542°
Mean anomaly
272.7824°
Eccentric anomaly
272.7683°
Mean motion
3.81789 °/min
Orbital period
94.29 mins
BSTAR
0.00006717
Loading maneuver chart data...
Computing Atmospheric mass density...
Loading historical data...
Loading historical data...
Loading historical data...
Loading historical data...
Loading historical data...
Loading historical data...
Loading historical data...
Other satellites on launch #54 in the year 2022 (2022-05-19 UTC)

Documentation

Showing up to 5 results
|